STARLINK-33632, 63577

Orbit data source: Space-Track

STARLINK-33632, 63577 is a payload satellite owned by SpaceX/Seattle (US) in LEO that was launched on Mon, 14 Apr 2025 UTC via an FALCON 9 launch vehicle from the Air Force Eastern Test Range (AFETR). Payload-class satellites include a variety of spacecraft equipped with specific instruments for various scientific and technological missions. These include communications satellites like Starlink; space stations such as the ISS; scientific satellites like the Hubble; Earth observation satellites from companies like Planet Labs, Umbra, and HawkEye 360; GPS; miniature CubeSats for education and research; and military/defense satellites.

Loading next visibility...
Identifier
63577, 2025-076J
Orbit
LEO
Country
Flag of USUS
Related business
Manufacturer
SpaceX/Seattle
Mission
Operational Commercial Communications
Bus & Motor
STARLINK V2MO, Unknown motor
Mass
575 kg wet, ~530 kg dry
Launch date (UTC)
2025-04-14 (7 months ago)
Launch vehicle
FALCON 9
Launch site
Air Force Eastern Test Range (AFETR)
Object type
Payload
Rocket body
Debris
Shape & HBR
Box + 2 Pan, 17.7 m
Radar Cross Section
36.964 m², Large (>1 m²)

Expand to show TLE details & history
Last TLE update: 12 hours ago

TLE from 12 hours ago
0 STARLINK-33632
1 63577U 25076J   25302.82873183  .00041387  00000-0  15063-2 0  9990
2 63577  43.0032 341.0139 0001097 283.2353  76.8376 15.27553480 31816
Epoch: 2025-10-29T19:53Z
TLE epoch observation values (Epoch: 2025-10-29T19:53:22.430Z)
Latitude
-0.00002°
Longitude
4.27415°
Altitude
482.733 km
Speed
7.626 km/s
True Right ascension
22h 44m 03s
True Declination
0° 00' 00"
Sunlit
Object was in full shadow at epoch
Visualization orbit readout
Latitude
Unknown
Longitude
Unknown
Altitude
Unknown
Speed
Unknown
Apparent Right ascension
Unknown
Apparent Declination
Unknown
Sunlit
N/A
Visualization observer readout
Local Sidereal Time
03:26:27
Azimuth
Unknown
Elevation
Unknown
Doppler factor
Unknown
Orbital elements
Apogee altitude
485.826 km
Perigee altitude
484.32 km
Semi-major axis
6,863.21 km
Eccentricity
0.00011
Inclination
43.0032°
RAAN
341.0139°
Arg. of periapsis
283.2353°
True anomaly
76.84984°
Mean anomaly
76.8376°
Eccentric anomaly
76.84372°
Mean motion
3.81726 °/min
Orbital period
94.31 mins
BSTAR
0.0015063
Loading maneuver chart data...
Computing Atmospheric mass density...
Loading historical data...
Loading historical data...
Loading historical data...
Loading historical data...
Loading historical data...
Loading historical data...
Loading historical data...

Documentation

Showing up to 5 results
|